Location: Solon
(41.3849°N, 81.4081°W)
Time: 08:14:02
(UTC-04:00)

CZ-2C R/B - Visible Passes

Search period start: 01 October 2014 00:00
Search period end: 11 October 2014 00:00
Orbit: 706 x 909 km, 98.1° (Epoch: 30 September)

Date Brightness Start Highest point End Pass type
(mag) Time Alt. Az. Time Alt. Az. Time Alt. Az.
01 Oct 5.7 03:06:59 17° NE 03:06:59 17° NE 03:09:13 10° NNE visible
01 Oct 4.8 04:48:05 23° NNW 04:48:05 23° NNW 04:50:12 10° NNW visible
02 Oct 6.1 02:42:24 12° NE 02:42:24 12° NE 02:43:30 10° NNE visible
02 Oct 4.9 04:23:31 25° N 04:23:31 25° N 04:25:47 10° N visible
03 Oct 5.1 03:58:57 24° N 03:58:57 24° N 04:01:11 10° N visible
03 Oct 5.4 05:40:03 11° NW 05:40:03 11° NW 05:40:13 10° NW visible
04 Oct 5.5 03:34:23 20° NNE 03:34:23 20° NNE 03:36:24 10° N visible
04 Oct 5.3 05:15:29 14° NNW 05:15:29 14° NNW 05:16:23 10° NNW visible
05 Oct 5.8 03:09:49 16° NNE 03:09:49 16° NNE 03:11:21 10° NNE visible
05 Oct 5.2 04:50:55 17° NNW 04:50:55 17° NNW 04:52:12 10° NNW visible
06 Oct 6.1 02:45:16 11° NNE 02:45:16 11° NNE 02:45:47 10° NNE visible
06 Oct 5.3 04:26:22 18° NNW 04:26:22 18° NNW 04:27:49 10° NNW visible
07 Oct 5.5 04:01:49 18° N 04:01:49 18° N 04:03:14 10° N visible
08 Oct 5.7 03:37:16 16° N 03:37:16 16° N 03:38:28 10° N visible
09 Oct 6.0 03:12:44 13° NNE 03:12:44 13° NNE 03:13:27 10° NNE visible
09 Oct 5.6 04:53:50 12° NNW 04:53:50 12° NNW 04:54:11 10° NNW visible
10 Oct 5.6 04:29:17 13° NNW 04:29:17 13° NNW 04:29:49 10° NNW visible
